This is the latest recevied weather packets stored in our database for station/object KG4LKY-5. If no packets are shown the sender has not sent any weather packets the latest 10 day(s).
| Time | Temp. | Humidity | Pressure | Rain* | Wind** | Luminosity | Snow |
|---|---|---|---|---|---|---|---|
| 1777783996 | 3.89° C | 100% | 1019.3 hPa | 0 mm | - | - | - |
| 1777783094 | 2.78° C | 100% | 1019.3 hPa | 0 mm | - | - | - |
| 1777782794 | 3.33° C | 100% | 1019.2 hPa | 0 mm | - | - | - |
| 1777782492 | 3.33° C | 100% | 1019.1 hPa | 0 mm | - | - | - |
| 1777782192 | 3.89° C | 100% | 1019.1 hPa | 0 mm | - | - | - |
| 1777781892 | 3.33° C | 100% | 1018.9 hPa | 0 mm | - | - | - |
| 1777781291 | 3.89° C | 100% | 1018.9 hPa | 0 mm | - | - | - |
| 1777780991 | 3.89° C | 100% | 1018.9 hPa | 0 mm | - | - | - |
| 1777780691 | 3.89° C | 100% | 1018.8 hPa | 0 mm | - | - | - |
| 1777780390 | 3.89° C | 100% | 1018.9 hPa | 0 mm | - | - | - |
| 1777780090 | 4.44° C | 100% | 1019 hPa | 0 mm | - | - | - |
| 1777779790 | 4.44° C | 100% | 1019 hPa | 0 mm | - | - | - |
| 1777779490 | 4.44° C | 100% | 1018.9 hPa | 0 mm | - | - | - |
| 1777779189 | 5° C | 100% | 1019 hPa | 0 mm | - | - | - |
| 1777778889 | 4.44° C | 100% | 1018.9 hPa | 0 mm | - | - | - |
| 1777775884 | 6.11° C | 100% | 1018.7 hPa | 0 mm | - | - | - |
| 1777775584 | 6.11° C | 100% | 1018.7 hPa | 0 mm | - | - | - |
| 1777775284 | 6.11° C | 100% | 1018.7 hPa | 0 mm | - | - | - |
| 1777774983 | 5.56° C | 100% | 1018.6 hPa | 0 mm | - | - | - |
| 1777774683 | 6.11° C | 100% | 1018.5 hPa | 0 mm | - | - | - |
| 1777772280 | 7.22° C | 94% | 1018.1 hPa | 0 mm | - | - | - |
| 1777771679 | 6.67° C | 89% | 1017.8 hPa | 0 mm | - | - | - |
| 1777771078 | 6.67° C | 78% | 1017.8 hPa | 0 mm | - | - | - |
| 1777770477 | 7.78° C | 74% | 1017.6 hPa | 0 mm | - | - | - |
| 1777769877 | 7.22° C | 74% | 1017.4 hPa | 0 mm | - | - | - |
* Rain since midnight (hover to see other rain measurements)
** Current wind speed in m/s (hover to see current wind gust speed)